SCP
0 0 0 0 0 0 0 0 0 0 0 0 0 0 0 0 0 0 0 0 0 0 0 0 0 0 0 0 0 0 0 0 0 0 0 0 0 0 0 0 0 0 0 0
0 0 0 0 0 0 0 0 0 0 0 0 0 0 0 0 0 0 0 0 0 0 0 0 0 0 0 0 0 0 0 0 0 0 0 0 0 0 0 0 0 0 0 0
0 0 0 0 0 0 0 0 0 0 0 0 0 0 0 0 0 0 0 0 0 0 0 0 0 0 0 0 0 0 0 0 0 0 0 0 0 0 0 0 0 0 0 0
0 0 0 0 0 0 0 0 0 0 0 0 0 0 0 0 0 0 0 0 0 0 0 0 0 0 0 0 0 0 0 0 0 0 0 0 0 0 0 0 0 0 0 0
0 0 0 0 0 0 0 0 0 0 0 0 0 0 0 0 0 0 0 0 0 0 0 0 0 0 0 0 0 0 0 0 0 0 0 0 0 0 0 0 0 0 0 0
0 0 0 0 0 0 0 0 0 0 0 0 0 0 0 0 0 0 0 0 0 0 0 0 0 0 0 0 0 0 0 0 0 0 0 0 0 0 0 0 0 0 0 0
0 0 0 0 0 0 0 0 0 0 0 0 0 0 0 0 0 0 0 0 0 0 0 0 0 0 0 0 0 0 0 0 0 0 0 0 0 0 0 0 0 0 0 0
0 0 0 0 0 0 0 0 0 0 0 0 0 0 0 0 0 0 0 0 0 0 0 0 0 0 0 0 0 0 0 0 0 0 0 0 0 0 0 0 0 0 0 0
0 0 0 0 0 0 0 0 0 0 0 0 0 0 0 0 0 0 0 0 0 0 0 0 0 0 0 0 0 0 0 0 0 0 0 0 0 0 0 0 0 0 0 0
0 0 0 0 0 0 0 0 0 0 0 0 0 0 0 0 0 0 0 0 0 0 0 0 0 0 0 0 0 0 0 0 0 0 0 0 0 0 0 0 0 0 0 0
0 0 0 0 0 0 0 0 0 0 0 0 0 0 0 0 0 0 0 0 0 0 0 0 0 0 0 0 0 0 0 0 0 0 0 0 0 0 0 0 0 0 0 0
0 0 0 0 0 0 0 0 0 0 0 0 0 0 0 0 0 0 0 0 0 0 0 0 0 0 0 0 0 0 0 0 0 0 0 0 0 0 0 0 0 0 0 0
0 0 0 0 0 0 0 0 0 0 0 0 0 0 0 0 0 0 0 0 0 0 0 0 0 0 0 0 0 0 0 0 0 0 0 0 0 0 0 0 0 0 0 0
0 0 0 0 0 0 0 0 0 0 0 0 0 0 0 0 0 0 0 0 0 0 0 0 0 0 0 0 0 0 0 0 0 0 0 0 0 0 0 0 0 0 0 0
0 0 0 0 0 0 0 0 0 0 0 0 0 0 0 0 0 0 0 0 0 0 0 0 0 0 0 0 0 0 0 0 0 0 0 0 0 0 0 0 0 0 0 0
0 0 0 0 0 0 0 0 0 0 0 0 0 0 0 0 0 0 0 0 0 0 0 0 0 0 0 0 0 0 0 0 0 0 0 0 0 0 0 0 0 0 0 0
0 0 0 0 0 0 0 0 0 0 0 0 0 0 0 0 0 0 0 0 0 0 0 0 0 0 0 0 0 0 0 0 0 0 0 0 0 0 0 0 0 0 0 0
0 0 0 0 0 0 0 0 0 0 0 0 0 0 0 0 0 0 0 0 0 0 0 0 0 0 0 0 0 0 0 0 0 0 0 0 0 0 0 0 0 0 0 0
0 0 0 0 0 0 0 0 0 0 0 0 0 0 0 0 0 0 0 0 0 0 0 0 0 0 0 0 0 0 0 0 0 0 0 0 0 0 0 0 0 0 0 0
0 0 0 0 0 0 0 0 0 0 0 0 0 0 0 0 0 0 0 0 0 0 0 0 0 0 0 0 0 0 0 0 0 0 0 0 0 0 0 0 0 0 0 0
0 0 0 0 0 0 0 0 0 0 0 0 0 0 0 0 0 0 0 0 0 0 0 0 0 0 0 0 0 0 0 0 0 0 0 0 0 0 0 0 0 0 0 0
0 0 0 0 0 0 0 0 0 0 0 0 0 0 0 0 0 0 0 0 0 0 0 0 0 0 0 0 0 0 0 0 0 0 0 0 0 0 0 0 0 0 0 0
0 0 0 0 0 0 0 0 0 0 0 0 0 0 0 0 0 0 0 0 0 0 0 0 0 0 0 0 0 0 0 0 0 0 0 0 0 0 0 0 0 0 0 0
0 0 0 0 0 0 0 0 0 0 0 0 0 0 0 0 0 0 0 0 0 0 0 0 0 0 0 0 0 0 0 0 0 0 0 0 0 0 0 0 0 0 0 0
0 0 0 0 0 0 0 0 0 0 0 0 0 0 0 0 0 0 0 0 0 0 0 0 0 0 0 0 0 0 0 0 0 0 0 0 0 0 0 0 0 0 0 0
0 0 0 0 0 0 0 -0 0 0 0 0 0 0 0 0 0 0 0 0 0 0 0 0 0 0 0 0 0 0 0 0 0 0 0 0 0 0 0 0 0 0 0 0
Wind_Speed_500mb
7 14 25 36 32 7 3 8 18 5 2 7 21 25 23 20 16 19 18 14 13 12 15 17 19 22 26 29 32 35 37 38 38 35 30 25 24 23 17 11 8 2 2 4
10 27 28 5 17 15 11 17 28 10 6 8 17 26 27 26 22 26 27 26 23 23 23 28 30 32 35 37 37 37 36 36 34 33 34 32 31 28 24 21 18 15 11 9
24 5 17 18 15 21 22 27 24 17 4 9 11 30 37 15 16 17 25 27 29 34 42 44 44 46 48 49 51 51 50 48 46 41 37 34 31 29 25 22 18 17 16 16
17 8 14 21 20 25 28 24 19 15 8 18 4 15 10 17 19 24 31 35 36 35 38 46 51 53 50 49 48 45 42 39 38 34 29 27 23 21 21 17 15 14 13 14
11 18 19 21 19 23 12 10 18 13 19 12 15 14 14 8 21 27 39 40 41 40 47 51 50 52 51 48 44 41 38 35 32 26 20 14 13 18 19 17 14 14 15 16
8 2 9 8 6 13 26 13 10 5 4 15 30 26 13 16 16 26 42 50 51 50 56 56 53 51 50 47 42 39 35 31 29 24 22 19 17 20 18 16 12 13 13 14
8 18 8 9 10 5 14 22 7 9 10 14 1 21 24 14 10 15 48 56 52 51 55 58 57 53 49 45 40 36 31 25 24 21 18 15 13 13 10 6 3 3 6 9
21 14 30 27 35 19 34 28 13 14 11 4 5 16 11 1 13 9 30 53 56 56 61 65 62 57 53 47 42 36 29 23 20 18 16 15 13 13 10 7 5 3 5 9
18 13 6 8 7 28 16 20 5 8 3 5 12 10 14 8 11 14 28 49 58 60 67 69 65 60 54 49 42 36 28 22 20 21 21 20 18 16 13 10 7 5 6 9
11 11 3 5 6 1 11 21 9 8 11 13 11 13 18 18 27 21 29 49 56 57 67 71 70 64 57 49 44 39 31 27 26 26 26 24 21 18 14 11 8 5 5 9
9 9 7 12 23 34 13 14 9 6 9 8 9 11 11 25 30 36 44 51 60 65 74 78 75 66 59 53 49 45 38 33 32 31 30 26 23 20 17 13 8 5 9 14
21 5 12 23 2 4 22 21 27 13 13 9 6 12 7 4 18 34 37 45 52 63 73 76 77 73 66 58 55 51 42 38 36 36 33 32 29 26 20 14 10 9 13 19
25 11 10 7 7 4 17 19 27 13 4 25 14 10 6 8 10 22 27 36 49 61 68 75 76 77 72 67 62 55 46 44 42 41 39 38 35 30 25 19 15 14 18 24
50 16 32 34 11 20 21 29 29 34 20 32 40 22 15 16 18 23 29 38 47 61 76 73 72 78 74 71 65 59 53 49 47 46 45 44 41 36 31 27 22 20 23 29
23 30 39 42 19 13 16 36 42 51 62 31 40 40 28 30 30 38 39 39 44 59 70 78 77 76 74 72 67 62 57 54 52 52 52 50 47 44 42 36 30 28 30 33
4 25 33 38 41 29 26 33 50 55 54 52 31 31 16 39 24 22 35 41 51 64 74 78 75 72 72 65 59 61 61 62 57 58 57 53 53 52 50 45 39 39 39 37
25 28 15 32 29 9 13 53 40 35 42 39 40 29 13 14 28 36 36 46 57 58 65 68 68 63 55 50 50 52 56 58 61 60 57 58 58 59 57 53 52 48 46 44
23 36 15 11 12 20 12 6 33 34 24 24 3 9 16 14 28 31 31 41 43 46 47 52 48 44 42 39 41 43 46 51 55 58 59 58 62 65 64 62 60 56 52 47
4 13 8 9 14 12 2 8 18 24 28 21 25 9 12 14 10 10 28 31 32 37 37 36 33 33 35 38 40 43 42 43 48 53 54 58 64 66 68 67 64 59 55 50
3 9 15 8 11 17 2 5 8 9 11 16 29 15 19 26 11 14 31 30 31 33 33 31 31 35 39 40 39 37 36 37 40 44 50 53 56 60 64 65 63 60 55 52
8 5 25 13 11 9 9 13 18 13 8 16 36 36 43 14 13 14 30 38 35 30 27 27 31 31 31 35 38 38 33 35 39 41 43 46 50 55 60 61 61 57 55 55
18 17 9 7 10 18 19 12 16 7 18 32 34 40 47 32 33 40 40 37 31 26 22 20 24 29 35 41 47 43 36 36 36 41 43 44 48 55 60 59 58 56 57 59
9 7 8 14 6 4 40 7 12 25 31 30 37 40 36 37 43 39 35 28 22 19 21 27 34 37 44 48 51 47 42 42 44 50 53 51 51 57 61 59 57 57 59 61
9 10 7 8 9 6 33 15 26 24 28 32 33 34 35 38 39 39 33 30 26 24 26 32 41 49 54 56 56 54 50 50 54 57 60 60 58 59 60 60 59 59 60 61
4 19 11 2 2 6 25 26 37 42 37 37 32 29 32 38 38 39 37 36 29 29 31 35 41 47 51 57 63 63 60 61 59 59 59 60 59 58 58 59 60 61 61 62
13 11 9 6 24 11 33 54 49 53 49 38 31 33 33 34 36 38 40 39 36 35 33 38 43 45 47 49 55 60 66 64 56 54 56 57 54 55 56 58 60 60 62 65
Wind_Direction_500mb
150 203 215 213 217 254 180 220 252 200 171 244 239 256 198 188 192 194 189 173 153 145 129 125 125 125 126 126 116 113 111 112 117 122 126 132 135 128 135 130 119 154 249 288
164 228 229 139 195 211 227 245 252 271 206 238 249 253 254 201 222 212 189 176 165 149 136 130 126 127 125 125 124 119 114 111 113 116 116 119 116 117 109 100 95 87 72 59
211 163 184 173 165 200 226 230 240 260 151 213 275 264 247 210 207 195 188 178 170 162 153 143 135 131 127 125 121 119 116 116 113 108 103 104 107 104 100 95 87 77 61 50
234 170 151 183 211 201 236 221 238 237 242 260 223 280 232 206 204 199 188 182 173 166 158 148 141 137 133 128 124 122 120 118 114 109 102 102 102 105 102 96 82 69 56 45
199 178 185 203 213 186 257 142 206 220 237 267 212 263 239 195 223 203 191 183 177 171 166 159 153 147 142 136 132 129 126 120 114 114 111 103 107 119 108 93 85 71 58 46
274 119 206 211 96 187 137 105 89 95 203 252 227 218 206 212 219 181 186 187 182 177 174 169 164 157 151 147 143 136 134 133 133 139 136 124 95 98 95 87 69 48 33 23
193 219 182 164 129 92 186 164 195 223 210 249 152 214 252 237 180 188 188 185 183 181 180 176 172 167 163 160 155 149 145 139 140 143 131 116 107 111 112 96 79 40 359 346
201 231 191 190 213 185 193 192 199 214 205 223 129 226 238 319 136 149 186 182 181 183 186 184 180 177 177 174 167 163 161 157 147 153 155 155 156 162 168 176 194 253 315 321
193 244 191 205 142 170 179 214 178 113 97 257 208 236 250 185 193 176 167 179 186 188 190 189 187 187 186 184 179 178 174 175 172 175 181 183 184 189 197 202 218 249 287 310
202 242 219 146 137 199 200 145 170 217 214 231 210 240 223 202 208 184 186 192 190 192 195 195 195 194 194 192 190 188 189 189 190 193 196 197 201 207 205 214 218 241 297 312
157 233 139 140 209 189 174 194 209 210 220 231 258 233 218 199 192 189 198 196 193 195 197 199 199 200 201 200 201 202 199 201 202 204 206 207 212 216 218 219 227 281 315 322
198 188 197 206 139 306 233 222 191 201 189 245 306 248 160 161 182 187 191 196 197 201 201 202 203 205 205 208 210 210 209 209 211 213 214 215 218 219 218 225 251 292 314 321
170 206 219 220 218 182 219 205 217 213 45 211 198 220 160 146 209 198 189 195 201 203 203 203 205 209 211 215 217 217 218 219 218 219 220 223 223 223 225 233 254 287 311 319
163 183 210 225 205 156 203 205 207 206 227 227 233 241 196 206 208 200 207 207 205 206 206 204 207 212 215 221 224 225 225 225 225 225 226 228 229 230 236 242 254 278 299 309
191 223 218 238 233 204 207 195 197 209 224 216 242 228 202 194 202 198 207 203 200 205 204 207 211 213 218 224 227 230 231 232 233 230 229 232 233 236 241 245 255 272 285 296
191 228 215 241 241 234 235 217 204 211 223 235 247 240 178 198 191 194 209 200 206 209 209 212 213 217 222 228 233 238 238 237 234 234 235 234 238 244 247 251 258 268 276 282
184 209 183 236 217 191 262 228 205 210 218 222 224 237 141 173 196 207 202 206 213 212 213 212 213 220 228 233 241 242 244 241 238 238 237 238 243 248 252 255 260 264 270 278
192 204 212 229 129 219 272 5 217 211 196 211 232 152 158 172 200 215 214 215 211 217 217 215 213 221 227 229 238 244 244 241 237 237 238 242 246 251 254 258 262 263 269 276
118 166 156 188 208 323 104 201 169 179 231 197 219 157 144 126 134 216 209 213 219 218 214 216 213 217 229 236 240 241 239 232 231 236 241 247 251 256 259 260 260 262 268 274
141 214 202 154 207 225 263 175 170 129 251 199 184 137 154 146 195 228 211 196 193 189 190 201 218 228 232 231 229 230 230 231 236 243 251 256 260 261 259 258 259 262 267 274
160 184 215 198 222 273 201 169 151 148 237 154 180 173 159 186 205 181 171 178 180 191 203 216 225 232 233 229 227 219 221 246 261 252 253 258 259 259 257 257 259 262 267 276
180 169 188 176 217 249 145 115 178 152 133 159 178 186 186 182 162 161 165 176 189 202 214 228 238 241 234 228 221 224 248 269 255 249 252 259 265 261 257 257 259 263 270 277
211 204 185 201 203 58 167 85 171 154 157 169 171 181 179 168 175 177 182 188 200 213 224 233 243 249 241 227 229 237 263 263 257 254 255 260 264 260 257 256 259 264 270 276
228 169 202 162 176 197 183 128 170 161 167 182 175 174 179 187 195 192 189 202 215 226 230 239 246 249 241 231 237 243 259 261 261 258 257 256 257 258 258 259 263 267 272 277
142 147 145 40 112 121 194 185 189 197 184 177 183 191 201 206 206 206 211 221 235 237 233 242 251 252 242 240 244 249 257 265 265 259 257 255 256 259 260 262 264 268 272 277
184 150 172 194 186 161 195 212 197 196 196 194 208 213 213 214 217 225 231 235 240 245 252 250 247 247 238 240 248 255 259 263 258 255 255 255 259 263 263 264 267 270 273 277
Wind_Speed_850mb
7 14 25 36 32 7 3 8 18 5 2 7 21 25 23 20 16 19 18 14 13 12 15 17 19 22 26 29 32 35 37 38 38 35 30 25 24 23 17 11 8 2 2 4
10 27 28 5 17 15 11 17 28 10 6 8 17 26 27 26 22 26 27 26 23 23 23 28 30 32 35 37 37 37 36 36 34 33 34 32 31 28 24 21 18 15 11 9
24 5 17 18 15 21 22 27 24 17 4 9 11 30 37 15 16 17 25 27 29 34 42 44 44 46 48 49 51 51 50 48 46 41 37 34 31 29 25 22 18 17 16 16
17 8 14 21 20 25 28 24 19 15 8 18 4 15 10 17 19 24 31 35 36 35 38 46 51 53 50 49 48 45 42 39 38 34 29 27 23 21 21 17 15 14 13 14
11 18 19 21 19 23 12 10 18 13 19 12 15 14 14 8 21 27 39 40 41 40 47 51 50 52 51 48 44 41 38 35 32 26 20 14 13 18 19 17 14 14 15 16
8 2 9 8 6 13 26 13 10 5 4 15 30 26 13 16 16 26 42 50 51 50 56 56 53 51 50 47 42 39 35 31 29 24 22 19 17 20 18 16 12 13 13 14
8 18 8 9 10 5 14 22 7 9 10 14 1 21 24 14 10 15 48 56 52 51 55 58 57 53 49 45 40 36 31 25 24 21 18 15 13 13 10 6 3 3 6 9
21 14 30 27 35 19 34 28 13 14 11 4 5 16 11 1 13 9 30 53 56 56 61 65 62 57 53 47 42 36 29 23 20 18 16 15 13 13 10 7 5 3 5 9
18 13 6 8 7 28 16 20 5 8 3 5 12 10 14 8 11 14 28 49 58 60 67 69 65 60 54 49 42 36 28 22 20 21 21 20 18 16 13 10 7 5 6 9
11 11 3 5 6 1 11 21 9 8 11 13 11 13 18 18 27 21 29 49 56 57 67 71 70 64 57 49 44 39 31 27 26 26 26 24 21 18 14 11 8 5 5 9
9 9 7 12 23 34 13 14 9 6 9 8 9 11 11 25 30 36 44 51 60 65 74 78 75 66 59 53 49 45 38 33 32 31 30 26 23 20 17 13 8 5 9 14
21 5 12 23 2 4 22 21 27 13 13 9 6 12 7 4 18 34 37 45 52 63 73 76 77 73 66 58 55 51 42 38 36 36 33 32 29 26 20 14 10 9 13 19
25 11 10 7 7 4 17 19 27 13 4 25 14 10 6 8 10 22 27 36 49 61 68 75 76 77 72 67 62 55 46 44 42 41 39 38 35 30 25 19 15 14 18 24
50 16 32 34 11 20 21 29 29 34 20 32 40 22 15 16 18 23 29 38 47 61 76 73 72 78 74 71 65 59 53 49 47 46 45 44 41 36 31 27 22 20 23 29
23 30 39 42 19 13 16 36 42 51 62 31 40 40 28 30 30 38 39 39 44 59 70 78 77 76 74 72 67 62 57 54 52 52 52 50 47 44 42 36 30 28 30 33
4 25 33 38 41 29 26 33 50 55 54 52 31 31 16 39 24 22 35 41 51 64 74 78 75 72 72 65 59 61 61 62 57 58 57 53 53 52 50 45 39 39 39 37
25 28 15 32 29 9 13 53 40 35 42 39 40 29 13 14 28 36 36 46 57 58 65 68 68 63 55 50 50 52 56 58 61 60 57 58 58 59 57 53 52 48 46 44
23 36 15 11 12 20 12 6 33 34 24 24 3 9 16 14 28 31 31 41 43 46 47 52 48 44 42 39 41 43 46 51 55 58 59 58 62 65 64 62 60 56 52 47
4 13 8 9 14 12 2 8 18 24 28 21 25 9 12 14 10 10 28 31 32 37 37 36 33 33 35 38 40 43 42 43 48 53 54 58 64 66 68 67 64 59 55 50
3 9 15 8 11 17 2 5 8 9 11 16 29 15 19 26 11 14 31 30 31 33 33 31 31 35 39 40 39 37 36 37 40 44 50 53 56 60 64 65 63 60 55 52
8 5 25 13 11 9 9 13 18 13 8 16 36 36 43 14 13 14 30 38 35 30 27 27 31 31 31 35 38 38 33 35 39 41 43 46 50 55 60 61 61 57 55 55
18 17 9 7 10 18 19 12 16 7 18 32 34 40 47 32 33 40 40 37 31 26 22 20 24 29 35 41 47 43 36 36 36 41 43 44 48 55 60 59 58 56 57 59
9 7 8 14 6 4 40 7 12 25 31 30 37 40 36 37 43 39 35 28 22 19 21 27 34 37 44 48 51 47 42 42 44 50 53 51 51 57 61 59 57 57 59 61
9 10 7 8 9 6 33 15 26 24 28 32 33 34 35 38 39 39 33 30 26 24 26 32 41 49 54 56 56 54 50 50 54 57 60 60 58 59 60 60 59 59 60 61
4 19 11 2 2 6 25 26 37 42 37 37 32 29 32 38 38 39 37 36 29 29 31 35 41 47 51 57 63 63 60 61 59 59 59 60 59 58 58 59 60 61 61 62
13 11 9 6 24 11 33 54 49 53 49 38 31 33 33 34 36 38 40 39 36 35 33 38 43 45 47 49 55 60 66 64 56 54 56 57 54 55 56 58 60 60 62 65
Wind_Direction_850mb
150 203 215 213 217 254 180 220 252 200 171 244 239 256 198 188 192 194 189 173 153 145 129 125 125 125 126 126 116 113 111 112 117 122 126 132 135 128 135 130 119 154 249 288
164 228 229 139 195 211 227 245 252 271 206 238 249 253 254 201 222 212 189 176 165 149 136 130 126 127 125 125 124 119 114 111 113 116 116 119 116 117 109 100 95 87 72 59
211 163 184 173 165 200 226 230 240 260 151 213 275 264 247 210 207 195 188 178 170 162 153 143 135 131 127 125 121 119 116 116 113 108 103 104 107 104 100 95 87 77 61 50
234 170 151 183 211 201 236 221 238 237 242 260 223 280 232 206 204 199 188 182 173 166 158 148 141 137 133 128 124 122 120 118 114 109 102 102 102 105 102 96 82 69 56 45
199 178 185 203 213 186 257 142 206 220 237 267 212 263 239 195 223 203 191 183 177 171 166 159 153 147 142 136 132 129 126 120 114 114 111 103 107 119 108 93 85 71 58 46
274 119 206 211 96 187 137 105 89 95 203 252 227 218 206 212 219 181 186 187 182 177 174 169 164 157 151 147 143 136 134 133 133 139 136 124 95 98 95 87 69 48 33 23
193 219 182 164 129 92 186 164 195 223 210 249 152 214 252 237 180 188 188 185 183 181 180 176 172 167 163 160 155 149 145 139 140 143 131 116 107 111 112 96 79 40 359 346
201 231 191 190 213 185 193 192 199 214 205 223 129 226 238 319 136 149 186 182 181 183 186 184 180 177 177 174 167 163 161 157 147 153 155 155 156 162 168 176 194 253 315 321
193 244 191 205 142 170 179 214 178 113 97 257 208 236 250 185 193 176 167 179 186 188 190 189 187 187 186 184 179 178 174 175 172 175 181 183 184 189 197 202 218 249 287 310
202 242 219 146 137 199 200 145 170 217 214 231 210 240 223 202 208 184 186 192 190 192 195 195 195 194 194 192 190 188 189 189 190 193 196 197 201 207 205 214 218 241 297 312
157 233 139 140 209 189 174 194 209 210 220 231 258 233 218 199 192 189 198 196 193 195 197 199 199 200 201 200 201 202 199 201 202 204 206 207 212 216 218 219 227 281 315 322
198 188 197 206 139 306 233 222 191 201 189 245 306 248 160 161 182 187 191 196 197 201 201 202 203 205 205 208 210 210 209 209 211 213 214 215 218 219 218 225 251 292 314 321
170 206 219 220 218 182 219 205 217 213 45 211 198 220 160 146 209 198 189 195 201 203 203 203 205 209 211 215 217 217 218 219 218 219 220 223 223 223 225 233 254 287 311 319
163 183 210 225 205 156 203 205 207 206 227 227 233 241 196 206 208 200 207 207 205 206 206 204 207 212 215 221 224 225 225 225 225 225 226 228 229 230 236 242 254 278 299 309
191 223 218 238 233 204 207 195 197 209 224 216 242 228 202 194 202 198 207 203 200 205 204 207 211 213 218 224 227 230 231 232 233 230 229 232 233 236 241 245 255 272 285 296
191 228 215 241 241 234 235 217 204 211 223 235 247 240 178 198 191 194 209 200 206 209 209 212 213 217 222 228 233 238 238 237 234 234 235 234 238 244 247 251 258 268 276 282
184 209 183 236 217 191 262 228 205 210 218 222 224 237 141 173 196 207 202 206 213 212 213 212 213 220 228 233 241 242 244 241 238 238 237 238 243 248 252 255 260 264 270 278
192 204 212 229 129 219 272 5 217 211 196 211 232 152 158 172 200 215 214 215 211 217 217 215 213 221 227 229 238 244 244 241 237 237 238 242 246 251 254 258 262 263 269 276
118 166 156 188 208 323 104 201 169 179 231 197 219 157 144 126 134 216 209 213 219 218 214 216 213 217 229 236 240 241 239 232 231 236 241 247 251 256 259 260 260 262 268 274
141 214 202 154 207 225 263 175 170 129 251 199 184 137 154 146 195 228 211 196 193 189 190 201 218 228 232 231 229 230 230 231 236 243 251 256 260 261 259 258 259 262 267 274
160 184 215 198 222 273 201 169 151 148 237 154 180 173 159 186 205 181 171 178 180 191 203 216 225 232 233 229 227 219 221 246 261 252 253 258 259 259 257 257 259 262 267 276
180 169 188 176 217 249 145 115 178 152 133 159 178 186 186 182 162 161 165 176 189 202 214 228 238 241 234 228 221 224 248 269 255 249 252 259 265 261 257 257 259 263 270 277
211 204 185 201 203 58 167 85 171 154 157 169 171 181 179 168 175 177 182 188 200 213 224 233 243 249 241 227 229 237 263 263 257 254 255 260 264 260 257 256 259 264 270 276
228 169 202 162 176 197 183 128 170 161 167 182 175 174 179 187 195 192 189 202 215 226 230 239 246 249 241 231 237 243 259 261 261 258 257 256 257 258 258 259 263 267 272 277
142 147 145 40 112 121 194 185 189 197 184 177 183 191 201 206 206 206 211 221 235 237 233 242 251 252 242 240 244 249 257 265 265 259 257 255 256 259 260 262 264 268 272 277
184 150 172 194 186 161 195 212 197 196 196 194 208 213 213 214 217 225 231 235 240 245 252 250 247 247 238 240 248 255 259 263 258 255 255 255 259 263 263 264 267 270 273 277